Preview of NWS' New Version of Forecast
This preview is not operational and should not be used for support decisions.

Regional Weather Roundup (RWR)

Issued by National Weather Service (NWS)

                            
000
ASUS44 KMEG 220500
RWRTN 
TENNESSEE HOURLY STATE WEATHER ROUNDUP
NATIONAL WEATHER SERVICE MEMPHIS TN
1200 AM CDT MON JUL 22 2019

TNZ002-004-019-021-049-052-054-088>092-220600-
WEST TENNESSEE
  
CITY           SKY/WX    TMP DP  RH WIND       PRES   REMARKS
MEMPHIS INTL   FAIR      81  78  91 S6        29.94F                  
NWS MEMPHIS      N/A     78 N/A N/A MISG        N/A                   
JACKSON        FAIR      76  75  97 CALM      29.96S                  
DYERSBURG      FAIR      77  75  93 CALM      29.95F                  
SELMER         CLEAR     75  73  94 CALM      29.97R                  
$$

TNZ008-025-027-028-033-062-065-066-220600-
NORTH MIDDLE TENNESSEE
  
CITY           SKY/WX    TMP DP  RH WIND       PRES   REMARKS
NASHVILLE      FAIR      80  74  81 SW3       29.98S                  
CLARKSVILLE    FAIR      80  76  87 SW6       29.95F                  
SMYRNA         FAIR      77  74  90 S3        29.99S                  
LIVINGSTON     PTCLDY    75  72  88 SW3       30.00S                  
CROSSVILLE     FAIR      72  69  90 VRB3      30.06S                  
$$

TNZ061-075-076-078-094-096-097-220600-
SOUTH MIDDLE TENNESSEE
  
CITY           SKY/WX    TMP DP  RH WIND       PRES   REMARKS
$$

TNZ017-018-042-046-047-220600-
NORTHEAST TENNESSEE
  
CITY           SKY/WX    TMP DP  RH WIND       PRES   REMARKS
TRI CITIES     CLOUDY    77  71  82 SW3       30.04R                  
$$

TNZ012-013-036-069-073-074-220600-
CENTRAL EAST TENNESSEE
  
CITY           SKY/WX    TMP DP  RH WIND       PRES   REMARKS
KNOXVILLE      CLOUDY    79  70  74 SW8       30.00S                  
OAK RIDGE      CLOUDY    78  73  84 CALM      30.02R                  
$$

TNZ083-085-099-220600-
SOUTHEAST TENNESSEE
  
CITY           SKY/WX    TMP DP  RH WIND       PRES   REMARKS
CHATTANOOGA    MOCLDY    80  73  79 S5        30.01S                  
$$

SKY/WX REPORTED AS FAIR MEANS FEW OR NO CLOUDS BELOW
12 THOUSAND FEET.